History for DABS

Tebessa, Algeria

Daily Weekly Monthly
Daily Summary for Thursday, December 18, 2014
  Actual: Average: Record:
Temperature
Mean Temperature: 44 °F / 7 °C - :  
Max Temperature: 50 °F / 10 °C 54 °F / 12 °C - ()
Min Temperature: 39 °F / 4 °C 35 °F / 1 °C - ()
Degree Days
Heating Degree Days: 20    
Moisture
Dew Point 43 °F / 6 °C    
Average Humidity 84    
Maximum Humidity 94    
Minimum Humidity 75    
Precipitation
Precipitation 0.02 in / 0.5 cm 0.03 in / 0.9 cm - ()
Sea Level Pressure
Sea Level Pressure 30.17 in / 1021.73 hPa   
Wind
Wind Speed 12 mph / 20 km/h ()  
Max Wind Speed 34 mph / 56 km/h   
Max Gust Speed -   
Visibility 5.8 miles / 9.4 kilometers   
Events Rain   

Key: T is trace of precipitation, MM is missing value
Source: Averaged Metar Reports

Graphs

Observations

History Graphs Observations

Obs Go Here...

Features

Weather Apps

WunderRadio

Weather Underground Apps
Check out our wide variety of mobile and setup applications.

Weather Underground Applications

Top of Page

Copyright© 2014
Weather Underground, Inc.
Time(CET)TemperatureDew PointHumidity Sea Level Pressure Visibility Wind DirectionWind SpeedGust SpeedPrecipitationEvents Conditions
12:00 AM 42.8 °F / 6.0 °C 39.2 °F / 4.0 °C 87% 30.18 in / 1022 hPa 5.0 miles / 8.0 kilometers WNW 4.6 mph / 7.4 km/h - N/A   Mostly Cloudy
1:00 AM 42 °F / 6 °C 39 °F / 4 °C 85%  in /  hPa 6 miles / 10 kilometers WNW 11.5 mph / 18.5 km/h - -   Partly Cloudy
1:00 AM 42.8 °F / 6.0 °C 39.2 °F / 4.0 °C 87% 30.18 in / 1022 hPa 6.2 miles / 10.0 kilometers WNW 11.5 mph / 18.5 km/h - N/A   Scattered Clouds
4:00 AM 42 °F / 5 °C 38 °F / 4 °C 83%  in /  hPa 6 miles / 10 kilometers NNW 34.5 mph / 55.6 km/h - -   Scattered Clouds
4:00 AM 41.0 °F / 5.0 °C 39.2 °F / 4.0 °C 93% 30.15 in / 1021 hPa 6.2 miles / 10.0 kilometers NNW 13.8 mph / 22.2 km/h - N/A   Partly Cloudy
6:00 AM 41.0 °F / 5.0 °C 39.2 °F / 4.0 °C 93% 30.15 in / 1021 hPa 6.2 miles / 10.0 kilometers North 13.8 mph / 22.2 km/h - N/A   Partly Cloudy
7:00 AM 46 °F / 8 °C 41 °F / 5 °C 78%  in /  hPa 6 miles / 10 kilometers WNW 11.5 mph / 18.5 km/h - -   Partly Cloudy
7:00 AM 46.4 °F / 8.0 °C 41.0 °F / 5.0 °C 81% 30.15 in / 1021 hPa 6.2 miles / 10.0 kilometers WNW 11.5 mph / 18.5 km/h - N/A   Scattered Clouds
8:00 AM 46.4 °F / 8.0 °C 42.8 °F / 6.0 °C 87% 30.18 in / 1022 hPa 6.2 miles / 10.0 kilometers NNW 9.2 mph / 14.8 km/h - N/A Rain Light Rain
8:30 AM 46.4 °F / 8.0 °C 42.8 °F / 6.0 °C 87% 30.18 in / 1022 hPa 5.0 miles / 8.0 kilometers NW 16.1 mph / 25.9 km/h - N/A   Mostly Cloudy
9:00 AM 46.4 °F / 8.0 °C 42.8 °F / 6.0 °C 87% 30.18 in / 1022 hPa 5.0 miles / 8.0 kilometers NW 13.8 mph / 22.2 km/h - N/A   Mostly Cloudy
9:30 AM 46.4 °F / 8.0 °C 42.8 °F / 6.0 °C 87% 30.18 in / 1022 hPa 6.2 miles / 10.0 kilometers NW 18.4 mph / 29.6 km/h - N/A   Mostly Cloudy
10:00 AM 48 °F / 9 °C 43 °F / 6 °C 76%  in /  hPa 6 miles / 10 kilometers NW 16.1 mph / 25.9 km/h - -   Partly Cloudy
10:00 AM 48.2 °F / 9.0 °C 42.8 °F / 6.0 °C 82% 30.18 in / 1022 hPa 6.2 miles / 10.0 kilometers NW 16.1 mph / 25.9 km/h - N/A   Mostly Cloudy
10:30 AM 48.2 °F / 9.0 °C 42.8 °F / 6.0 °C 82% 30.18 in / 1022 hPa 6.2 miles / 10.0 kilometers NW 13.8 mph / 22.2 km/h - N/A   Mostly Cloudy
11:00 AM 48.2 °F / 9.0 °C 42.8 °F / 6.0 °C 82% 30.18 in / 1022 hPa 6.2 miles / 10.0 kilometers NW 13.8 mph / 22.2 km/h - N/A   Mostly Cloudy
11:30 AM 48.2 °F / 9.0 °C 41.0 °F / 5.0 °C 76% 30.18 in / 1022 hPa 6.2 miles / 10.0 kilometers NW 18.4 mph / 29.6 km/h - N/A   Mostly Cloudy
12:00 PM 50.0 °F / 10.0 °C 42.8 °F / 6.0 °C 76% 30.18 in / 1022 hPa 6.2 miles / 10.0 kilometers NW 16.1 mph / 25.9 km/h - N/A   Mostly Cloudy
12:30 PM 50.0 °F / 10.0 °C 42.8 °F / 6.0 °C 76% 30.18 in / 1022 hPa 6.2 miles / 10.0 kilometers NW 16.1 mph / 25.9 km/h - N/A   Mostly Cloudy
1:00 PM 49 °F / 10 °C 44 °F / 6 °C 75%  in /  hPa 9 miles / 15 kilometers NW 16.1 mph / 25.9 km/h - -   Partly Cloudy
1:00 PM 50.0 °F / 10.0 °C 42.8 °F / 6.0 °C 76% 30.18 in / 1022 hPa 6.2 miles / 10.0 kilometers NW 16.1 mph / 25.9 km/h - N/A   Mostly Cloudy
1:30 PM 50.0 °F / 10.0 °C 42.8 °F / 6.0 °C 76% 30.18 in / 1022 hPa 6.2 miles / 10.0 kilometers WNW 13.8 mph / 22.2 km/h - N/A   Mostly Cloudy
2:00 PM 50.0 °F / 10.0 °C 42.8 °F / 6.0 °C 76% 30.15 in / 1021 hPa 6.2 miles / 10.0 kilometers WNW 18.4 mph / 29.6 km/h - N/A   Mostly Cloudy
2:30 PM 50.0 °F / 10.0 °C 42.8 °F / 6.0 °C 76% 30.15 in / 1021 hPa 6.2 miles / 10.0 kilometers NW 13.8 mph / 22.2 km/h - N/A   Mostly Cloudy
3:00 PM 50.0 °F / 10.0 °C 44.6 °F / 7.0 °C 82% 30.15 in / 1021 hPa 5.0 miles / 8.0 kilometers NW 16.1 mph / 25.9 km/h - N/A Rain Light Rain
3:30 PM 50.0 °F / 10.0 °C 44.6 °F / 7.0 °C 82% 30.15 in / 1021 hPa 5.0 miles / 8.0 kilometers NW 13.8 mph / 22.2 km/h - N/A   Mostly Cloudy
4:00 PM 48 °F / 9 °C 45 °F / 7 °C 84%  in /  hPa 5 miles / 8 kilometers NW 19.6 mph / 31.5 km/h - - Rain Light Rain
4:00 PM 48.2 °F / 9.0 °C 44.6 °F / 7.0 °C 87% 30.15 in / 1021 hPa 5.0 miles / 8.0 kilometers NW 19.6 mph / 31.5 km/h - N/A   Mostly Cloudy
4:30 PM 48.2 °F / 9.0 °C 44.6 °F / 7.0 °C 87% 30.15 in / 1021 hPa 5.0 miles / 8.0 kilometers NW 18.4 mph / 29.6 km/h - N/A   Mostly Cloudy
5:00 PM 48.2 °F / 9.0 °C 44.6 °F / 7.0 °C 87% 30.15 in / 1021 hPa 5.0 miles / 8.0 kilometers NW 19.6 mph / 31.5 km/h - N/A Rain Light Rain
6:00 PM 46.4 °F / 8.0 °C 44.6 °F / 7.0 °C 93% 30.15 in / 1021 hPa 5.0 miles / 8.0 kilometers Calm Calm - N/A   Mostly Cloudy
7:00 PM 48 °F / 9 °C 45 °F / 7 °C 87%  in /  hPa 5 miles / 8 kilometers WNW 6.9 mph / 11.1 km/h - -   Partly Cloudy
7:00 PM 48.2 °F / 9.0 °C 44.6 °F / 7.0 °C 87% 30.18 in / 1022 hPa 5.0 miles / 8.0 kilometers WNW 6.9 mph / 11.1 km/h - N/A   Mostly Cloudy
8:00 PM 46.4 °F / 8.0 °C 44.6 °F / 7.0 °C 93% 30.18 in / 1022 hPa 5.0 miles / 8.0 kilometers NW 9.2 mph / 14.8 km/h - N/A Rain Light Rain
9:00 PM 46.4 °F / 8.0 °C 44.6 °F / 7.0 °C 93% 30.21 in / 1023 hPa 5.0 miles / 8.0 kilometers NW 9.2 mph / 14.8 km/h - N/A Rain Light Rain
10:00 PM 47 °F / 8 °C 46 °F / 8 °C 94%  in /  hPa 6 miles / 10 kilometers NW 4.6 mph / 7.4 km/h - - Rain Light Rain
10:00 PM 48.2 °F / 9.0 °C 46.4 °F / 8.0 °C 93% 30.21 in / 1023 hPa 6.2 miles / 10.0 kilometers NW 4.6 mph / 7.4 km/h - N/A   Mostly Cloudy
11:00 PM 46.4 °F / 8.0 °C 44.6 °F / 7.0 °C 93% 30.21 in / 1023 hPa 6.2 miles / 10.0 kilometers NW 4.6 mph / 7.4 km/h - N/A   Mostly Cloudy